Weather History for Abbotsford, BC

Change the Weather History Date:

Thursday, November 7, 2013

  Actual Average Record
Temperature  
Mean Temperature 46 °F -  
Max Temperature 49 °F 47 °F 60 °F (2002)
Min Temperature 42 °F 35 °F 26 °F (2003)
Degree Days  
Heating Degree Days 20    
Moisture  
Dew Point 43 °F    
Average Humidity 92    
Maximum Humidity 100    
Minimum Humidity 81    
Precipitation  
Precipitation 0.87 in 0.29 in - ()
Sea Level Pressure  
Sea Level Pressure 29.78 in    
Wind  
Wind Speed 6 mph ()    
Max Wind Speed 14 mph    
Max Gust Speed 20 mph    
Visibility 9.0 miles    
Events Rain    
Averages and records for this station are not official NWS values.
T = Trace of Precipitation, MM = Missing Value Source: Averaged Metar Reports

Daily Weather History Graph

Daily Weather History Graph

Search for Another Location

Airport:

Trip Planner

Search our weather history database for the weather conditions in past years. The results will help you decide how hot, cold, wet, or windy it might be!

Date:

Astronomy

Nov. 07, 2013 Rise Set
Actual Time 7:07 AM PST 4:38 PM PST
Civil Twilight 6:33 AM PST 5:12 PM PST
Nautical Twilight 5:55 AM PST 5:50 PM PST
Astronomical Twilight 5:18 AM PST 6:27 PM PST
Moon 11:24 AM PST (11/7) 8:53 PM PST (11/7)
Length of Visible Light 10h 39m
Length of Day
9h 31m
Waxing Crescent, 24% of the Moon is Illuminated
Nov 7
Waxing Crescent
Nov 9
First Quarter
Nov 17
Full
Nov 25
Last Quarter
Dec 2
New

Hourly Weather History & Observations

Time (PST) Temp. Windchill Dew Point Humidity Pressure Visibility Wind Dir Wind Speed Gust Speed Precip Events Conditions
12:00 AM 44.6 °F 40.2 °F 39.2 °F 81% 30.02 in 10.0 mi NE 8.1 mph - N/A Rain Light Rain
1:00 AM 42.8 °F 37.0 °F 41.0 °F 93% 29.99 in 10.0 mi NE 10.4 mph - N/A Rain Light Rain
2:00 AM 42.8 °F 38.0 °F 41.0 °F 93% 29.96 in 10.0 mi East 8.1 mph - N/A Rain Light Rain
3:00 AM 42.8 °F 38.6 °F 41.0 °F 93% 29.92 in 10.0 mi NE 6.9 mph - N/A Rain Light Rain
4:00 AM 43 °F - 41 °F 90% 29.86 in 10 mi East 8.1 mph - - Rain Light Rain
4:00 AM 42.8 °F 38.6 °F 41.0 °F 93% 29.86 in 10.0 mi East 6.9 mph - N/A Rain Light Rain
4:42 AM 42.8 °F 40.1 °F 41.0 °F 93% 29.84 in 10.0 mi NNE 4.6 mph - N/A Rain Rain
5:00 AM 42.8 °F 39.3 °F 41.0 °F 93% 29.83 in 10.0 mi NNE 5.8 mph - N/A Rain Heavy Rain
5:48 AM 42.8 °F 38.6 °F 41.0 °F 93% 29.80 in 10.0 mi NE 6.9 mph - N/A Rain Rain
6:00 AM 42.8 °F 36.6 °F 41.0 °F 93% 29.78 in 10.0 mi ENE 11.5 mph - N/A Rain Light Rain
6:41 AM 42.8 °F 38.0 °F 41.0 °F 93% 29.76 in 10.0 mi East 8.1 mph - N/A Rain Rain
7:00 AM 42.8 °F 37.5 °F 41.0 °F 93% 29.75 in 10.0 mi NE 9.2 mph - N/A Rain Light Rain
8:00 AM 44.6 °F 39.7 °F 41.0 °F 87% 29.71 in 20.0 mi NE 9.2 mph - N/A Rain Light Rain
9:00 AM 44.6 °F 42.2 °F 42.8 °F 93% 29.69 in 10.0 mi NE 4.6 mph - N/A Rain Light Rain
9:14 AM 44.6 °F - 42.8 °F 93% 29.68 in 10.0 mi Variable 2.3 mph - N/A Rain Rain
9:28 AM 44.6 °F 43.1 °F 42.8 °F 93% 29.68 in 5.0 mi Variable 3.5 mph - N/A Rain Heavy Rain
9:43 AM 44.6 °F 38.8 °F 42.8 °F 93% 29.69 in 5.0 mi Variable 11.5 mph - N/A Rain Heavy Rain
9:46 AM 44.6 °F 38.8 °F 42.8 °F 93% 29.70 in 2.5 mi West 11.5 mph - N/A Rain Heavy Rain
10:00 AM 44 °F - 43 °F 97% 29.71 in 2 mi SW 8.1 mph - - Rain Heavy Rain
10:00 AM 44.6 °F 41.4 °F 42.8 °F 93% 29.71 in 2.5 mi SW 5.8 mph - N/A Rain Heavy Rain
10:12 AM 44.6 °F - 42.8 °F 93% 29.70 in 5.0 mi Calm Calm - N/A Rain Rain
10:36 AM 44.6 °F 42.2 °F 42.8 °F 93% 29.71 in 5.0 mi East 4.6 mph - N/A Rain Rain
11:00 AM 44.6 °F 42.2 °F 42.8 °F 93% 29.72 in 4.0 mi East 4.6 mph - N/A Rain Rain
11:21 AM 44.6 °F 38.8 °F 42.8 °F 93% 29.72 in 5.0 mi East 11.5 mph - N/A Rain Light Rain
11:47 AM 44.6 °F 42.2 °F 42.8 °F 93% 29.74 in 3.0 mi WNW 4.6 mph - N/A Rain Heavy Rain Showers
12:00 PM 44.6 °F 41.4 °F 42.8 °F 93% 29.73 in 5.0 mi East 5.8 mph - N/A Rain Light Rain Showers
12:50 PM 48.2 °F - 44.6 °F 87% 29.73 in 10.0 mi South 11.5 mph 19.6 mph N/A Rain Light Rain Showers
1:00 PM 48.2 °F - 44.6 °F 87% 29.73 in 15.0 mi South 8.1 mph - N/A Rain Light Rain Showers
2:00 PM 50.0 °F - 44.6 °F 82% 29.72 in 20.0 mi South 13.8 mph - N/A Rain Light Rain Showers
2:40 PM 48.2 °F - 44.6 °F 87% 29.71 in 20.0 mi East 8.1 mph - N/A   Overcast
3:00 PM 48.2 °F - 44.6 °F 87% 29.71 in 20.0 mi East 2.3 mph - N/A   Overcast
4:00 PM 47 °F - 44 °F 85% 29.73 in 25 mi East 2.3 mph - -   Partly Cloudy
4:00 PM 48.2 °F - 44.6 °F 87% 29.73 in 25.0 mi NE 3.5 mph - N/A   Overcast
5:00 PM 46.4 °F 43.5 °F 44.6 °F 93% 29.75 in 10.0 mi East 5.8 mph - N/A Rain Light Rain Showers
6:00 PM 46.4 °F - 44.6 °F 93% 29.78 in 8.0 mi NNW 2.3 mph - N/A Rain Light Rain
7:00 PM 46.4 °F 45.2 °F 44.6 °F 93% 29.80 in 5.0 mi NE 3.5 mph - N/A Rain Light Rain
8:00 PM 46.4 °F 44.3 °F 44.6 °F 93% 29.83 in 5.0 mi ENE 4.6 mph - N/A Rain Light Rain
9:00 PM 46.4 °F - 44.6 °F 93% 29.86 in 5.0 mi ESE 2.3 mph - N/A Rain Light Rain
10:00 PM 46 °F - 45 °F 94% 29.89 in 10 mi South 6.9 mph - -   Partly Cloudy
10:00 PM 46.4 °F 43.5 °F 44.6 °F 93% 29.88 in 10.0 mi South 5.8 mph - N/A   Overcast
11:00 PM 46.4 °F 42.9 °F 46.4 °F 100% 29.91 in 10.0 mi South 6.9 mph - N/A   Overcast
11:41 PM 48.2 °F - 46.4 °F 93% 29.92 in 10.0 mi South 6.9 mph - N/A Rain Light Rain